Saltillo, Mexico

5:01 PM CDT on July 25, 2017 (GMT -0500)
Plan De Guadalupe International

Weather History for MMIO - March, 2013

Change the Weather History Date:

Saturday, March 2, 2013

  Actual Average Record
Temperature  
Mean Temperature 44 °F -  
Max Temperature 64 °F 71 °F 87 °F (2012)
Min Temperature 25 °F 49 °F 25 °F (2013)
Degree Days  
Heating Degree Days 20    
Moisture  
Dew Point 27 °F    
Average Humidity 39    
Maximum Humidity 75    
Minimum Humidity 10    
Precipitation  
Precipitation 0.00 in - - ()
Sea Level Pressure  
Sea Level Pressure 30.35 in    
Wind  
Wind Speed 8 mph ()    
Max Wind Speed 16 mph    
Max Gust Speed -    
Visibility 9.3 miles    
Events      
Averages and records for this station are not official NWS values.
T = Trace of Precipitation, MM = Missing Value Source: Averaged Metar Reports

Daily Weather History Graph

Daily Weather History Graph

Search for Another Location

Airport or City:

Trip Planner

Search our weather history database for the weather conditions in past years. The results will help you decide how hot, cold, wet, or windy it might be!

Date:

Astronomy

Mar. 02, 2013 Rise Set
Actual Time 7:05 AM CST 6:46 PM CST
Civil Twilight 6:42 AM CST 7:09 PM CST
Nautical Twilight 6:16 AM CST 7:36 PM CST
Astronomical Twilight 5:49 AM CST 8:02 PM CST
Moon 11:49 PM CST (3/2) 10:10 AM CST (3/2)
Length of Visible Light 12h 26m
Length of Day
11h 40m
Waning Gibbous, 74% of the Moon is Illuminated
Mar 2
Waning Gibbous
Mar 4
Last Quarter
Mar 11
New
Mar 19
First Quarter
Mar 27
Full

Hourly Weather History & Observations

Time (CST) Temp. Windchill Dew Point Humidity Pressure Visibility Wind Dir Wind Speed Gust Speed Precip Events Conditions
12:45 AM 41.0 °F 36.4 °F 28.4 °F 61% 30.34 in 10.0 mi South 6.9 mph - N/A   Clear
1:45 AM 41.0 °F 36.4 °F 28.4 °F 61% 30.34 in 10.0 mi East 6.9 mph - N/A   Clear
2:30 AM 38 °F - 12 °F 21% 30.29 in 3 mi SE 6.7 mph - -   Haze
5:30 AM 34 °F - 11 °F 24% 30.40 in 3 mi SE 4.5 mph - -   Haze
5:45 AM 35.6 °F 26.6 °F 28.4 °F 75% 30.38 in 10.0 mi SSE 13.8 mph - N/A   Clear
6:00 AM 35.6 °F 26.6 °F 28.4 °F 75% 30.38 in 10.0 mi SSE 13.8 mph - N/A   Clear
6:45 AM 37.4 °F 32.8 °F 28.4 °F 70% 30.38 in 10.0 mi SSE 5.8 mph - N/A   Clear
7:40 AM 39.2 °F 32.5 °F 32.0 °F 75% 30.41 in 10.0 mi SSE 10.4 mph - N/A   Clear
8:30 AM 37 °F - 13 °F 23% 30.50 in 12 mi South 6.7 mph - -  
8:45 AM 50.0 °F - 32.0 °F 50% 30.41 in 10.0 mi South 10.4 mph - N/A   Clear
9:45 AM 57.2 °F - 32.0 °F 38% 30.41 in 10.0 mi Calm Calm - N/A   Clear
10:45 AM 60.8 °F - 32.0 °F 34% 30.41 in 10.0 mi Calm Calm - N/A   Clear
11:30 AM 55 °F - 17 °F 11% 30.48 in 12 mi SE 6.7 mph - -  
12:45 PM 64.4 °F - 33.8 °F 32% 30.40 in 10.0 mi East 10.4 mph - N/A   Clear
1:45 PM 64.4 °F - 35.6 °F 34% 30.38 in 10.0 mi NW 11.5 mph - N/A   Clear
2:30 PM 61 °F - 19 °F 10% 30.35 in 12 mi SE 11.2 mph - -  
2:40 PM 68.0 °F - 33.8 °F 28% 30.34 in 10.0 mi NNE 16.1 mph - N/A   Clear
3:40 PM 68.0 °F - 33.8 °F 28% 30.34 in 10.0 mi NNE 13.8 mph - N/A   Clear
4:40 PM 66.2 °F - 37.4 °F 35% 30.32 in 10.0 mi NNE 13.8 mph - N/A   Clear
5:30 PM 59 °F - 19 °F 11% 30.22 in 12 mi NNW 13.4 mph - -  
5:40 PM 64.4 °F - 35.6 °F 34% 30.33 in 10.0 mi NNE 13.8 mph - N/A   Clear
7:40 PM 59.0 °F - 35.6 °F 42% 30.33 in 10.0 mi ENE 9.2 mph - N/A   Clear
8:30 PM 46 °F - 15 °F 16% 30.17 in 3 mi South 6.7 mph - -   Haze
8:40 PM 55.4 °F - 35.6 °F 47% 30.33 in 10.0 mi ENE 9.2 mph - N/A   Clear
9:40 PM 50.0 °F - 35.6 °F 58% 30.34 in 10.0 mi ENE 9.2 mph - N/A   Clear
10:40 PM - - - N/A% - 10.0 mi ENE 9.2 mph - N/A   Clear
11:30 PM 37 °F - 11 °F 21% 30.22 in 3 mi South 6.7 mph - -   Haze